Location: Krakow
(50.0830°N, 19.9170°E)
Time: 11:36:04
(UTC+01:00)

Vanguard 2 - All Passes

Search period start: 15 March 2026 00:00
Search period end: 25 March 2026 00:00
Orbit: 553 x 2896 km, 32.9° (Epoch: 14 March)

Date Brightness Start Highest point End Pass type
(mag) Time Alt. Az. Time Alt. Az. Time Alt. Az.
15 Mar - 01:40:57 10° WSW 01:53:55 30° SSW 02:03:47 10° SSE visible
15 Mar - 03:57:34 10° WSW 04:00:55 11° SW 04:04:00 10° SSW visible
15 Mar - 19:25:37 10° SSW 19:37:16 24° SE 19:49:31 10° E visible
15 Mar - 21:31:32 10° SW 21:46:33 39° SSE 22:00:38 10° ESE visible
15 Mar - 23:40:58 10° WSW 23:56:25 40° S 00:09:02 10° SE visible
16 Mar - 01:52:53 10° W 02:05:11 27° SSW 02:14:44 10° SSE visible
16 Mar - 17:39:14 10° SE 17:40:41 10° SE 17:42:10 10° SE daylight
16 Mar - 19:36:02 10° SSW 19:48:28 28° SSE 20:01:44 10° E visible
16 Mar - 21:42:46 10° SW 21:57:59 41° S 22:12:20 10° ESE visible
16 Mar - 23:52:35 10° WSW 00:07:51 39° SSW 00:20:25 10° SE visible
17 Mar - 02:05:00 10° W 02:16:21 23° SW 02:25:28 10° S visible
17 Mar - 17:45:09 10° SSE 17:51:39 14° SE 17:58:42 10° ESE daylight
17 Mar - 19:46:45 10° SSW 19:59:44 32° SSE 20:13:46 10° E visible
17 Mar - 21:54:07 10° WSW 22:09:26 42° S 22:23:57 10° ESE visible
18 Mar - 00:04:16 10° WSW 00:19:14 37° SSW 00:31:42 10° SE visible
18 Mar - 02:17:21 10° WSW 02:27:28 20° SW 02:35:51 10° S visible
18 Mar - 17:54:14 10° S 18:02:40 18° SE 18:12:11 10° ESE daylight
18 Mar - 19:57:41 10° SW 20:11:02 35° SSE 20:25:39 10° ESE visible
18 Mar - 22:05:34 10° WSW 22:20:54 42° S 22:35:31 10° ESE visible
19 Mar - 00:16:01 10° WSW 00:30:34 34° SSW 00:42:51 10° SE visible
19 Mar - 02:30:10 10° WSW 02:38:31 16° SW 02:45:43 10° SSW visible
19 Mar - 18:04:07 10° S 18:13:44 21° SE 18:24:53 10° E visible
19 Mar - 20:08:47 10° SW 20:22:23 38° SSE 20:37:24 10° ESE visible
19 Mar - 22:17:05 10° WSW 22:32:21 42° S 22:46:58 10° ESE visible
20 Mar - 00:27:53 10° W 00:41:51 31° SSW 00:53:49 10° SSE visible
20 Mar - 02:43:54 10° WSW 02:49:30 13° SW 02:54:36 10° SSW night (unlit)
20 Mar - 18:14:29 10° SSW 18:24:51 25° SE 18:37:13 10° E visible
20 Mar - 20:20:02 10° SW 20:33:47 40° SSE 20:49:06 10° ESE visible
20 Mar - 22:28:41 10° WSW 22:43:47 41° S 22:58:21 10° SE visible
21 Mar - 00:39:53 10° W 00:53:04 28° SSW 01:04:34 10° SSE visible
21 Mar - 18:25:10 10° SSW 18:36:02 29° SSE 18:49:18 10° E visible
21 Mar - 20:31:22 10° SW 20:45:12 41° S 21:00:42 10° ESE visible
21 Mar - 22:40:21 10° WSW 22:55:12 39° SSW 23:09:37 10° SE visible
22 Mar - 00:52:05 10° W 01:04:15 24° SW 01:15:03 10° S visible
22 Mar - 16:34:34 10° SSE 16:39:49 13° SE 16:45:46 10° ESE daylight
22 Mar - 18:36:05 10° SSW 18:47:16 32° SSE 19:01:12 10° E visible
22 Mar - 20:42:49 10° WSW 20:56:38 42° S 21:12:14 10° ESE visible
22 Mar - 22:52:05 10° WSW 23:06:35 36° SSW 23:20:44 10° SE visible
23 Mar - 01:04:35 10° WSW 01:15:21 20° SW 01:25:08 10° S visible
23 Mar - 16:43:58 10° S 16:50:49 17° SE 16:59:03 10° ESE daylight
23 Mar - 18:47:10 10° SW 18:58:34 35° SSE 19:12:59 10° ESE visible
23 Mar - 20:54:20 10° WSW 21:08:06 42° S 21:23:41 10° ESE visible
23 Mar - 23:03:55 10° WSW 23:17:55 33° SSW 23:31:41 10° SSE visible
24 Mar - 01:17:36 10° WSW 01:26:24 16° SW 01:34:36 10° SSW visible
24 Mar - 16:54:07 10° S 17:01:53 20° SE 17:11:38 10° ESE daylight
24 Mar - 18:58:25 10° SW 19:09:55 37° SSE 19:24:41 10° ESE visible
24 Mar - 21:05:56 10° WSW 21:19:33 41° S 21:35:02 10° SE visible
24 Mar - 23:15:52 10° W 23:29:12 30° SSW 23:42:26 10° SSE visible
